Location: Les Salelles
(44.4192°N, 4.1044°E)
Time: 09:33:54
(UTC+00:00)

CZ-2C R/B - Pass Details

Date: 20 January 2021
Orbit: 704 x 908 km, 98.1° (Epoch: 28 February)

Event Time Altitude Azimuth Distance (km) Brightness Sun altitude
Rises 18:06:32 0° 167° (SSE) 3,254 6.3 -15.9°
Reaches altitude 10° 18:08:47 10° 169° (SSE) 2,359 5.5 -16.3°
Maximum altitude 18:14:02 82° 257° (WSW) 842 3.2 -17.2°
Drops below altitude 10° 18:19:37 10° 345° (NNW) 2,509 5.7 -18.1°
Sets 18:22:05 0° 347° (NNW) 3,476 6.4 -18.6°
